星链-31856 (STARLINK-31856 )

导读

STARLINK-31856是美国太空探索技术公司(SpaceX)星链互联网星座的一颗卫星,于北京时间2024年6月5日发射入轨,属于Starlink Group批次组网卫星。该卫星旨在为全球提供高速低延迟宽带互联网服务,尤其覆盖偏远地区,延续了星链星座大规模组网、推进全球网络覆盖的部署进程。

Basic Information
目录编号:
59960
目录名称:
STARLINK-31856
国际标识:
2024-107R
轨道中心:
EARTH
卫星名称:
星链-31856
卫星全名:
星链-31856 (STARLINK-31856 )
卫星状态:
在轨 (已飞行821 天)
发射日期:
2024-06-05 UTC
国别 :
美国 (US)
星等 :
--
Orbit Information
数据来源 国际轨道数据
星历时间: 2026-09-03T22:15:24+0800
12小时前
查看轨道信息
半长轴: 6840.844km
偏心率: 0.0001138
轨道倾角: 53.160°
近地点辐角 83.249°
升交点赤经 316.408°
平近点角 276.864°
近地点: 461.928km
远地点: 463.486km
周期: 93.848分钟
每日圈数: 15.343989
Detailed Information
固有亮度:
5
最大亮度:
1.5
卫星平台:
Starlink v2.0 mini
覆盖范围:
全球
运营商:
太空探索技术公司
运营商所在国:
美国
制造商(研发单位):
太空探索技术公司
制造商所在国:
美国
使用方式:
暂无
Satellite Introduction
星链(Starlink)计划是由太空探索技术公司(SpaceX)提出的一个巨型低轨卫星互联网星座项目,计划在2019年至2024年间在太空搭建由约1.2万颗卫星组成的“星链”网络,其中1584颗将部署在地球上空550千米处的近地轨道,并从2020年开始工作。该卫星仍在工作。
2D Orbit Map
3D Orbit Map
Orbit Altitude Analysis Chart
Orbit Inclination Analysis Chart
Orbit Comprehensive Analysis Chart
View Comprehensive Chart
Conjunction Data List
Event ID Objects TCA Miss Dist (km) Collision Risk Probability Collision Risk Index (CRI) Action
CDM_260904-103905-996006-818921
2026-09-04T
10:39:12+0000
0.493 km
远距离
1.871926E-4 高风险 0.8
CDM_260904-042305-996006-324023
2026-09-04T
04:23:50+0000
0.565 km
远距离
1.532795E-4 高风险 0.79
CDM_260904-044105-285705-996021
2026-09-04T
04:41:31+0000
0.452 km
远距离
8.50879E-5 中风险 0.74
CDM_260904-131205-996006-946521
2026-09-04T
13:12:48+0000
0.644 km
远距离
6.739341E-5 中风险 0.72
CDM_260905-125005-996006-448021
2026-09-05T
12:50:08+0000
0.714 km
远距离
4.083387E-5 中风险 0.67
CDM_260904-012905-996006-946521
2026-09-04T
01:29:21+0000
0.943 km
远距离
1.989932E-5 中风险 0.61
CDM_260904-121305-996006-818921
2026-09-04T
12:13:00+0000
1.241 km
极远距离
1.105202E-5 中风险 0.56
CDM_260904-145605-996006-449221
2026-09-04T
14:56:40+0000
1.101 km
极远距离
9.131686E-6 低风险 0.54
CDM_260903-034005-285705-996021
2026-09-03T
03:40:46+0000
0.980 km
远距离
7.639816E-6 低风险 0.53
CDM_260905-113905-996006-895921
2026-09-05T
11:39:30+0000
1.453 km
极远距离
6.482812E-6 低风险 0.51